CW1492 Weather Reports


time (UTC)temp
C
wind
direction
speed
KPH
gust
KPH
rain 1hr
cm
rain 24hr
cm
rain mn
cm
humidity
%
barometer
mb
20260510170413 17 286 3.2 6.4 0.00 0.64 0.03 73 1013.0
20260510170328 16 292 1.6 4.8 0.00 1.04 0.05 81 1011.8
20260510164917 17 263 1.6 11.3 0.00 1.04 0.05 79 1011.8
20260510164829 16 166 4.8 9.7 0.00 0.81 0.03 73 1013.1
20260510163340 16 158 1.6 14.5 0.00 0.81 0.03 72 1013.0
20260510163336 17 255 1.6 9.7 0.00 1.04 0.05 78 1011.7
20260510161933 16 246 6.4 14.5 0.00 0.81 0.03 72 1012.8
20260510161850 16 246 6.4 14.5 0.00 0.81 0.03 72 1012.8
20260510161831 16 173 6.4 11.3 0.00 1.22 0.05 79 1011.5
20260510160348 16 158 4.8 12.9 0.00 0.81 0.03 73 1012.8
20260510154852 16 237 4.8 17.7 0.00 0.97 0.03 78 1012.7
20260510154842 14 140 9.7 16.1 0.00 1.22 0.05 85 1011.6
20260510153408 14 152 9.7 17.7 0.00 1.22 0.05 87 1011.8
20260510153403 15 152 6.4 14.5 0.00 0.97 0.03 81 1012.8
20260510151827 13 137 11.3 16.1 0.00 0.97 0.03 82 1013.0
20260510151824 13 144 6.4 14.5 0.00 1.35 0.05 90 1011.8
20260510150435 13 125 8.0 17.7 0.00 0.97 0.03 81 1012.8
20260510150342 13 146 14.5 19.3 0.00 1.35 0.05 90 1011.6
20260510144852 12 133 6.4 16.1 0.00 1.04 0.03 84 1012.8
20260510144840 12 158 9.7 17.7 0.00 1.35 0.05 92 1011.8
20260510143401 12 188 6.4 14.5 0.00 1.04 0.03 83 1013.2
20260510143336 12 148 9.7 19.3 0.00 1.35 0.05 92 1011.9
20260510141844 12 151 6.4 16.1 0.00 1.04 0.03 84 1013.0
20260510141841 12 153 9.7 19.3 0.00 1.42 0.05 92 1011.9
20260510140435 12 156 6.4 12.9 0.00 1.04 0.03 85 1013.0
20260510140358 12 148 9.7 16.1 0.00 1.42 0.05 92 1011.8
20260510134932 12 130 6.4 16.1 0.00 1.09 0.03 86 1013.0
20260510134836 11 146 4.8 11.3 0.00 1.42 0.05 92 1011.8
20260510133423 11 124 4.8 9.7 0.00 1.09 0.03 86 1013.2
20260510133313 11 142 6.4 12.9 0.00 1.42 0.05 93 1012.0
20260510131902 11 142 3.2 9.7 0.00 1.45 0.05 94 1011.9
20260510131828 11 289 4.8 11.3 0.00 1.09 0.03 86 1013.4
20260510130413 11 149 4.8 14.5 0.00 1.09 0.03 87 1013.3
20260510130339 11 200 4.8 12.9 0.00 1.45 0.05 94 1011.8
20260510124902 11 146 3.2 8.0 0.00 1.45 0.05 94 1011.7
20260510124851 11 173 6.4 9.7 0.00 1.09 0.03 87 1013.1
20260510123337 11 280 1.6 9.7 0.00 1.09 0.03 87 1013.0
20260510123320 11 117 3.2 8.0 0.00 1.45 0.05 95 1011.6
20260510121903 11 115 3.2 14.5 0.00 1.45 0.05 95 1011.5
20260510121841 10 189 4.8 9.7 0.00 1.09 0.03 88 1012.9
20260510120330 10 114 3.2 9.7 0.00 1.09 0.03 87 1013.2
20260510120321 11 100 1.6 6.4 0.00 1.45 0.05 95 1011.8
20260510114841 11 138 3.2 9.7 0.00 1.45 0.05 95 1011.9
20260510114833 10 148 6.4 14.5 0.00 1.09 0.03 88 1013.2
20260510113345 10 140 3.2 6.4 0.00 1.09 0.03 88 1013.3
20260510113321 11 335 1.6 6.4 0.00 1.45 0.05 95 1012.0
20260510111846 10 114 3.2 11.3 0.00 1.09 0.03 88 1012.7
20260510111820 10 131 4.8 17.7 0.00 1.45 0.05 96 1011.3
20260510110349 10 141 6.4 14.5 0.00 1.09 0.03 88 1012.6
20260510110323 10 155 0.0 8.0 0.00 1.45 0.05 96 1011.7
20260510104905 10 220 1.6 6.4 0.00 1.45 0.05 96 1011.4
20260510104846 10 153 4.8 12.9 0.00 1.09 0.03 88 1012.5
20260510103437 10 79 9.7 20.9 0.00 1.09 0.03 88 1012.2
20260510103324 10 151 4.8 16.1 0.00 1.45 0.05 97 1010.8
20260510101859 10 266 1.6 6.4 0.00 1.09 0.03 89 1012.0
20260510101851 10 190 3.2 6.4 0.00 1.45 0.05 97 1010.8
20260510100340 10 111 4.8 12.9 0.00 1.09 0.03 88 1011.6
20260510100326 10 117 1.6 6.4 0.00 1.45 0.05 97 1010.4
20260510094857 10 167 3.2 6.4 0.00 1.45 0.05 97 1010.4
20260510094846 10 132 1.6 9.7 0.00 1.09 0.03 89 1011.6
20260510093333 10 222 1.6 4.8 0.00 1.45 0.05 97 1010.1
20260510091903 10 87 6.4 16.1 0.00 1.09 0.03 88 1011.3
20260510091855 10 217 3.2 14.5 0.00 1.45 0.05 97 1009.8
20260510090334 10 131 0.0 11.3 0.00 1.45 0.05 97 1010.0
20260510090326 10 139 6.4 14.5 0.00 1.09 0.03 89 1011.2
20260510084850 10 90 8.0 14.5 0.00 1.09 0.03 89 1011.4
20260510084826 10 275 3.2 8.0 0.00 1.45 0.05 97 1010.1
20260510083359 10 130 3.2 12.9 0.00 1.09 0.03 89 1011.8
20260510083329 10 126 1.6 3.2 0.00 1.45 0.05 97 1010.4
20260510081913 10 244 1.6 3.2 0.00 1.45 0.05 97 1010.7
20260510081852 10 141 6.4 11.3 0.00 1.09 0.03 89 1011.9
20260510080420 10 273 1.6 3.2 0.00 1.45 0.05 97 1010.6
20260510080354 10 114 4.8 12.9 0.00 1.09 0.03 89 1011.8
20260510074920 10 149 4.8 16.1 0.00 1.09 0.03 89 1011.8
20260510074834 10 121 1.6 3.2 0.00 1.45 0.05 98 1010.5
20260510073412 10 161 1.6 11.3 0.00 1.09 0.03 89 1011.8
20260510073329 10 161 1.6 11.3 0.00 1.09 0.03 89 1011.8
20260510071923 10 126 4.8 12.9 0.00 1.09 0.03 89 1011.6
20260510071840 10 126 4.8 12.9 0.00 1.09 0.03 89 1011.6
20260510071831 10 123 1.6 6.4 0.00 1.45 0.05 97 1010.2
20260510070430 10 94 6.4 11.3 0.00 1.09 0.03 89 1011.5
20260510070353 10 118 4.8 9.7 0.00 1.45 0.05 97 1010.2
20260510064929 10 112 1.6 6.4 0.00 1.09 0.03 89 1011.6
20260510064919 10 284 0.0 11.3 0.00 1.45 0.05 97 1010.2
20260510064825 10 112 1.6 6.4 0.00 1.09 0.03 89 1011.6
20260510063425 10 121 4.8 4.8 0.00 1.09 0.03 89 1011.6
20260510063314 10 317 1.6 3.2 0.03 1.45 0.05 97 1010.2
20260510061905 10 129 1.6 6.4 0.00 1.09 0.03 89 1011.6
20260510061813 10 171 0.0 12.9 0.03 1.45 0.05 98 1010.1
20260510060418 10 151 3.2 4.8 0.03 1.45 0.05 97 1010.4
20260510060350 10 109 3.2 6.4 0.00 1.09 0.03 89 1011.8
20260510054837 10 108 3.2 4.8 0.00 1.09 0.03 90 1011.6
20260510054834 10 148 0.0 0.0 0.03 1.45 0.05 97 1010.2
20260510053400 10 148 0.0 1.6 0.00 1.42 0.03 97 1010.6
20260510053356 8 87 3.2 4.8 0.00 1.09 0.03 89 1011.8
20260510051911 9 221 0.0 0.0 0.00 1.09 0.03 89 1011.9
20260510051814 10 148 1.6 6.4 0.03 1.42 0.03 97 1010.4
20260510050414 10 197 0.0 3.2 0.00 1.09 0.03 89 1011.8
20260510050313 10 143 8.0 11.3 0.03 1.42 0.03 97 1010.2
20260510044827 10 152 4.8 8.0 0.03 1.42 0.03 97 1010.5
20260510043336 9 158 4.8 9.7 0.03 1.09 0.03 89 1012.0
20260510043330 10 146 3.2 4.8 0.03 1.42 0.03 97 1010.6
20260510041844 10 224 0.0 8.0 0.00 1.40 1.40 97 1010.6
20260510041837 8 66 4.8 6.4 0.03 1.09 0.03 89 1012.1
20260510040407 10 117 0.0 3.2 0.00 1.40 1.40 96 1010.7
20260510040341 8 168 0.0 0.0 0.03 1.09 0.03 89 1012.2
20260510034913 8 168 0.0 0.0 0.00 1.07 1.07 89 1012.2
20260510034850 10 193 0.0 8.0 0.00 1.40 1.40 96 1010.7
20260510033336 8 212 0.0 1.6 0.00 1.07 1.07 88 1012.2
20260510033327 10 173 0.0 11.3 0.00 1.40 1.40 96 1010.7
20260510031840 9 161 0.0 3.2 0.00 1.07 1.07 89 1012.0
20260510031831 10 153 8.0 11.3 0.00 1.40 1.40 96 1010.6
20260510030333 10 150 9.7 12.9 0.00 1.40 1.40 96 1010.6
20260510030328 9 118 1.6 8.0 0.00 1.07 1.07 89 1012.1
20260510024919 9 87 4.8 9.7 0.00 1.07 1.07 89 1012.1
20260510024837 9 87 4.8 9.7 0.00 1.07 1.07 89 1012.1
20260510024831 10 154 6.4 9.7 0.00 1.40 1.40 96 1010.7
20260510023326 9 89 3.2 11.3 0.00 1.07 1.07 89 1012.3
20260510023314 10 153 8.0 12.9 0.00 1.40 1.40 96 1010.9
20260510021846 9 141 0.0 6.4 0.00 1.07 1.07 89 1012.5
20260510021836 10 120 3.2 14.5 0.00 1.40 1.40 96 1011.1
20260510020337 10 150 9.7 19.3 0.03 1.40 1.40 97 1011.2
20260510020332 8 143 0.0 3.2 0.00 1.07 1.07 89 1012.6
20260510014837 10 155 1.6 4.8 0.03 1.40 1.40 97 1011.3
20260510014832 8 101 0.0 0.0 0.00 1.07 1.07 89 1012.6
20260510013419 8 101 0.0 3.2 0.00 1.07 1.07 89 1012.5
20260510013338 10 263 1.6 11.3 0.03 1.40 1.40 97 1011.2
20260510011838 10 129 3.2 6.4 0.03 1.40 1.40 97 1011.1
20260510011829 8 101 0.0 0.0 0.00 1.07 1.07 89 1012.6
20260510010329 8 101 0.0 4.8 0.00 1.07 1.07 89 1012.4
20260510010322 9 86 0.0 1.6 0.03 1.37 1.37 96 1011.1
20260510004842 10 88 0.0 6.4 0.03 1.37 1.37 95 1010.8
20260510004838 8 122 0.0 1.6 0.00 1.07 1.07 89 1012.3
20260510003404 8 122 0.0 3.2 0.00 1.07 1.07 89 1012.2
20260510003338 10 155 4.8 9.7 0.05 1.37 1.37 96 1010.8
20260510001933 8 122 0.0 3.2 0.00 1.07 1.07 89 1012.0
20260510001847 10 138 6.4 11.3 0.05 1.37 1.37 96 1010.5
20260510000344 10 149 6.4 11.3 0.05 1.35 1.35 96 1010.4
20260510000334 8 247 0.0 6.4 0.00 1.07 1.07 89 1011.9
20260509234837 8 274 0.0 0.0 0.00 1.07 1.07 89 1011.9
20260509234824 10 138 8.0 12.9 0.08 1.35 1.35 97 1010.4
20260509233407 10 213 0.0 9.7 0.05 1.32 1.32 96 1010.4
20260509233327 8 182 0.0 3.2 0.00 1.07 1.07 89 1011.8
20260509231831 8 197 0.0 4.8 0.00 1.07 1.07 89 1011.8
20260509231827 10 134 1.6 6.4 0.08 1.32 1.32 97 1010.4
20260509230424 8 3 0.0 3.2 0.00 1.07 1.07 89 1011.9
20260509230328 10 113 0.0 1.6 0.08 1.30 1.30 96 1010.5
20260509224932 8 12 0.0 4.8 0.00 1.07 1.07 89 1012.0
20260509224845 9 197 0.0 1.6 0.08 1.27 1.27 96 1010.5
20260509223354 8 327 3.2 4.8 0.00 1.07 1.07 89 1011.8
20260509223326 9 150 1.6 9.7 0.10 1.27 1.27 96 1010.3
20260509221841 7 293 0.0 1.6 0.00 1.07 1.07 89 1011.6
20260509221826 9 115 3.2 6.4 0.10 1.24 1.24 96 1010.4
20260509220408 7 293 0.0 3.2 0.00 1.07 1.07 88 1011.8
20260509220315 9 137 3.2 8.0 0.10 1.22 1.22 96 1010.4
20260509214858 9 135 1.6 4.8 0.13 1.19 1.19 96 1010.4
20260509214852 7 292 0.0 0.0 0.03 1.07 1.07 89 1011.8
20260509213336 8 151 4.8 8.0 0.13 1.17 1.17 96 1010.5
20260509213329 7 260 1.6 6.4 0.05 1.07 1.07 89 1012.0
20260509211919 7 257 4.8 9.7 0.10 1.07 1.07 89 1012.3
20260509211833 8 168 4.8 14.5 0.13 1.14 1.14 95 1010.8
20260509210358 8 153 3.2 11.3 0.15 1.12 1.12 96 1011.0
20260509210340 7 253 0.0 4.8 0.13 1.07 1.07 88 1012.5
20260509204915 8 209 1.6 12.9 0.13 1.07 1.07 96 1011.1
20260509204909 7 137 0.0 4.8 0.15 1.04 1.04 88 1012.6
20260509203338 8 147 6.4 9.7 0.13 1.04 1.04 96 1011.1
20260509203331 7 247 3.2 6.4 0.18 1.02 1.02 88 1012.7
20260509201902 7 240 3.2 4.8 0.15 0.97 0.97 88 1012.6
20260509201900 8 141 4.8 6.4 0.15 1.02 1.02 95 1011.2
20260509200426 8 160 4.8 8.0 0.13 0.97 0.97 96 1011.2
20260509200411 7 245 1.6 4.8 0.18 0.94 0.94 88 1012.8
20260509194910 7 264 0.0 3.2 0.13 0.86 0.86 88 1012.8
20260509194905 8 139 4.8 6.4 0.15 0.94 0.94 95 1011.4
20260509193332 7 303 0.0 0.0 0.15 0.84 0.84 88 1012.8
20260509193323 8 142 4.8 9.7 0.13 0.89 0.89 95 1011.4
20260509191835 7 303 0.0 0.0 0.15 0.81 0.81 88 1013.1
20260509191819 8 146 1.6 4.8 0.13 0.86 0.86 95 1011.7
20260509190352 7 303 0.0 0.0 0.13 0.76 0.76 88 1013.2
20260509190342 8 113 0.0 3.2 0.15 0.84 0.84 95 1011.7
20260509184847 6 303 0.0 3.2 0.15 0.74 0.74 88 1013.4
20260509184845 8 159 3.2 4.8 0.13 0.79 0.79 94 1011.7
20260509183407 8 126 3.2 6.4 0.15 0.76 0.76 95 1011.8
20260509183353 6 260 0.0 1.6 0.15 0.69 0.69 88 1013.4
20260509181833 6 260 0.0 3.2 0.15 0.66 0.66 88 1013.4
20260509181825 7 135 4.8 11.3 0.15 0.74 0.74 94 1011.9
20260509180420 6 182 0.0 0.0 0.18 0.64 0.64 88 1013.6
20260509180337 6 182 0.0 0.0 0.18 0.64 0.64 88 1013.6
20260509180313 7 134 11.3 14.5 0.15 0.69 0.69 94 1012.2
20260509174927 6 182 0.0 1.6 0.18 0.58 0.58 88 1013.9
20260509174839 7 140 9.7 12.9 0.18 0.66 0.66 94 1012.4
20260509173359 7 142 9.7 12.9 0.15 0.61 0.61 94 1012.4
20260509173356 6 247 0.0 3.2 0.18 0.53 0.53 88 1014.0
20260509171915 6 277 0.0 3.2 0.18 0.51 0.51 88 1014.2
20260509171836 7 142 6.4 11.3 0.18 0.58 0.58 94 1012.6